Weather History for Frederick, OK

Change the Weather History Date:

Wednesday, January 9, 2013

  Actual Average (KLTS) Record (KLTS)
Temperature  
Mean Temperature 47 °F -  
Max Temperature 50 °F 48 °F 80 °F (2009)
Min Temperature 44 °F 26 °F 12 °F (1999)
Degree Days  
Heating Degree Days 18    
Moisture  
Dew Point 44 °F    
Average Humidity 87    
Maximum Humidity 100    
Minimum Humidity 74    
Precipitation  
Precipitation 0.35 in - - ()
Sea Level Pressure  
Sea Level Pressure 30.10 in    
Wind  
Wind Speed 15 mph (NNE)    
Max Wind Speed 26 mph    
Max Gust Speed 33 mph    
Visibility 8 miles    
Events Rain    
Averages and records for this station are not official NWS values.
T = Trace of Precipitation, MM = Missing Value Source: NWS Daily Summary

Daily Weather History Graph

Daily Weather History Graph

Search for Another Location

Airport:

Trip Planner

Search our weather history database for the weather conditions in past years. The results will help you decide how hot, cold, wet, or windy it might be!

Date:

Astronomy

Jan. 09, 2013 Rise Set
Actual Time 7:42 AM CST 5:43 PM CST
Civil Twilight 7:15 AM CST 6:11 PM CST
Nautical Twilight 6:44 AM CST 6:42 PM CST
Astronomical Twilight 6:13 AM CST 7:12 PM CST
Moon 5:23 AM CST (1/9) 3:47 PM CST (1/9)
Length of Visible Light 10h 56m
Length of Day
10h 01m
Waning Crescent, 6% of the Moon is Illuminated
Jan 9
Waning Crescent
Jan 11
New
Jan 18
First Quarter
Jan 26
Full
Feb 3
Last Quarter

Hourly Weather History & Observations

Time (CST) Temp. Windchill Dew Point Humidity Pressure Visibility Wind Dir Wind Speed Gust Speed Precip Events Conditions
12:53 AM 46.9 °F - 44.1 °F 90% 30.12 in 10.0 mi NNE 9.2 mph - 0.00 in   Mostly Cloudy
1:20 AM 48.2 °F - 44.6 °F 87% 30.13 in 10.0 mi NNE 10.4 mph - N/A   Overcast
1:53 AM 48.0 °F - 44.1 °F 86% 30.11 in 10.0 mi North 9.2 mph - N/A   Overcast
2:53 AM 46.9 °F - 42.1 °F 83% 30.10 in 10.0 mi North 10.4 mph - N/A   Overcast
3:53 AM 46.9 °F - 42.1 °F 83% 30.13 in 10.0 mi North 9.2 mph - N/A   Overcast
4:14 AM 46.4 °F 41.9 °F 41.0 °F 81% 30.13 in 10.0 mi North 9.2 mph - N/A   Overcast
4:53 AM 46.9 °F - 41.0 °F 80% 30.13 in 10.0 mi North 10.4 mph - N/A   Overcast
5:53 AM 46.9 °F - 39.9 °F 77% 30.16 in 10.0 mi North 15.0 mph - N/A   Overcast
6:53 AM 45.0 °F 37.9 °F 37.9 °F 76% 30.17 in 10.0 mi North 16.1 mph - N/A   Overcast
7:53 AM 45.0 °F 37.4 °F 37.9 °F 76% 30.18 in 10.0 mi North 18.4 mph - N/A   Overcast
8:53 AM 44.1 °F 36.8 °F 37.0 °F 76% 30.21 in 10.0 mi North 16.1 mph - N/A   Overcast
9:53 AM 45.0 °F 37.9 °F 37.0 °F 74% 30.23 in 10.0 mi North 16.1 mph - N/A   Overcast
10:54 AM 44.1 °F 37.1 °F 39.9 °F 85% 30.21 in 4.0 mi North 15.0 mph - 0.00 in Rain Light Rain
12:53 PM 48.0 °F - 46.0 °F 93% 30.12 in 4.0 mi NNE 20.7 mph - 0.00 in Rain Light Rain
1:53 PM 48.9 °F - 45.0 °F 86% 30.09 in 9.0 mi North 20.7 mph - 0.01 in Rain Light Rain
2:53 PM 48.9 °F - 45.0 °F 86% 30.10 in 9.0 mi NNE 20.7 mph - 0.04 in Rain Light Rain
3:17 PM 46.4 °F 39.2 °F 44.6 °F 93% 30.09 in 5.0 mi NNE 18.4 mph - 0.01 in Rain Light Rain
3:53 PM 46.9 °F - 45.0 °F 93% 30.09 in 5.0 mi NNE 16.1 mph - 0.02 in Rain Light Rain
4:53 PM 48.0 °F - 46.0 °F 93% 30.08 in 2.5 mi NE 25.3 mph 28.8 mph 0.07 in Rain Heavy Rain
5:12 PM 48.2 °F - 46.4 °F 93% 30.07 in 4.0 mi NE 25.3 mph 32.2 mph 0.04 in Rain Light Rain
5:53 PM 48.0 °F - 45.0 °F 89% 30.05 in 10.0 mi NE 26.5 mph 31.1 mph 0.05 in   Overcast
6:53 PM 48.9 °F - 46.0 °F 90% 30.04 in 10.0 mi NE 24.2 mph 33.4 mph 0.00 in Rain Light Rain
7:53 PM 48.9 °F - 46.0 °F 90% 30.03 in 8.0 mi NE 24.2 mph 31.1 mph 0.05 in Rain Light Rain
8:53 PM 48.9 °F - 46.9 °F 93% 30.02 in 6.0 mi ENE 20.7 mph 28.8 mph 0.04 in Rain Light Rain
9:51 PM 48.2 °F - 48.2 °F 100% 30.02 in 3.0 mi ENE 19.6 mph - 0.03 in Rain Light Rain
9:53 PM 48.9 °F - 48.0 °F 97% 30.02 in 4.0 mi ENE 18.4 mph - 0.03 in Rain Light Rain
10:53 PM 50.0 °F - 48.9 °F 96% 30.01 in 10.0 mi ENE 19.6 mph - 0.04 in   Overcast
11:53 PM 50.0 °F - 48.9 °F 96% 29.99 in 10.0 mi ENE 17.3 mph - 0.00 in Rain Light Rain